DLH2EW EDDF-EPWA

Flight info

Callsign DLH2EW
Flight time N/A
Altitude 35000
Route SULUS4D SULUS L984 OKG DCT BALTU DCT LEGAZ DCT LAGAR DCT OKENO Q277 AGAVA
Aircraft A21N/M-SDE2E3FGHIRWXY/LB1

Departure

Time 2026-05-08 05:26
Airport Frankfurt Main Airport (EDDF)

Arrival

Time N/A
Airport Warsaw Chopin Airport (EPWA)
Time Latitude Longitude Altitude Speed Heading
2026-05-08 04:45 50.04432 8.56328 361 ft 0 kts 167°
2026-05-08 05:10 50.04433 8.56328 361 ft 2 kts 167°
2026-05-08 05:11 50.04457 8.56320 363 ft 4 kts 166°
2026-05-08 05:11 50.04478 8.56313 363 ft 4 kts 187°
2026-05-08 05:11 50.04499 8.56330 369 ft 4 kts 232°
2026-05-08 05:11 50.04512 8.56366 367 ft 4 kts 248°
2026-05-08 05:12 50.04516 8.56379 365 ft 2 kts 249°
2026-05-08 05:16 50.04504 8.56330 366 ft 13 kts 249°
2026-05-08 05:17 50.04470 8.56190 367 ft 15 kts 249°
2026-05-08 05:17 50.04433 8.56034 364 ft 16 kts 250°
2026-05-08 05:17 50.04366 8.55926 363 ft 15 kts 184°
2026-05-08 05:17 50.04309 8.55946 360 ft 3 kts 165°
2026-05-08 05:18 50.04275 8.55955 362 ft 12 kts 182°
2026-05-08 05:18 50.04171 8.55927 358 ft 16 kts 162°
2026-05-08 05:18 50.04064 8.55950 362 ft 17 kts 218°
2026-05-08 05:18 50.04009 8.55786 359 ft 18 kts 249°
2026-05-08 05:19 50.03965 8.55598 362 ft 19 kts 250°
2026-05-08 05:19 50.03917 8.55398 356 ft 20 kts 249°
2026-05-08 05:19 50.03866 8.55185 355 ft 22 kts 249°
2026-05-08 05:19 50.03823 8.55004 358 ft 17 kts 250°
2026-05-08 05:20 50.03779 8.54822 356 ft 19 kts 250°
2026-05-08 05:20 50.03733 8.54628 358 ft 20 kts 249°
2026-05-08 05:20 50.03689 8.54442 352 ft 13 kts 250°
2026-05-08 05:20 50.03652 8.54319 348 ft 9 kts 227°
2026-05-08 05:21 50.03608 8.54302 347 ft 5 kts 158°
2026-05-08 05:21 50.03583 8.54322 355 ft 0 kts 155°
2026-05-08 05:24 50.03579 8.54325 347 ft 3 kts 155°
2026-05-08 05:24 50.03542 8.54351 350 ft 10 kts 155°
2026-05-08 05:25 50.03494 8.54418 355 ft 7 kts 92°
2026-05-08 05:25 50.03502 8.54466 350 ft 0 kts 71°
2026-05-08 05:26 50.03540 8.54633 358 ft 51 kts 69°
2026-05-08 05:26 50.03758 8.55535 358 ft 126 kts 70°
2026-05-08 05:26 50.04124 8.57085 480 ft 166 kts 69°
2026-05-08 05:26 50.04495 8.58782 1271 ft 167 kts 70°
2026-05-08 05:27 50.04879 8.60531 1979 ft 177 kts 69°
2026-05-08 05:27 50.05311 8.62399 2562 ft 190 kts 68°
2026-05-08 05:27 50.05791 8.64390 3160 ft 203 kts 68°
2026-05-08 05:27 50.06246 8.66538 3801 ft 214 kts 71°
2026-05-08 05:28 50.06705 8.68799 4492 ft 225 kts 70°
2026-05-08 05:28 50.07185 8.71231 5030 ft 242 kts 78°
2026-05-08 05:28 50.07150 8.73909 5604 ft 258 kts 99°
2026-05-08 05:28 50.06776 8.76726 6212 ft 273 kts 102°
2026-05-08 05:29 50.06378 8.79653 7005 ft 279 kts 101°
2026-05-08 05:29 50.05998 8.82634 7833 ft 283 kts 100°
2026-05-08 05:29 50.05779 8.85699 8674 ft 287 kts 90°
2026-05-08 05:29 50.05806 8.88823 9516 ft 291 kts 88°
2026-05-08 05:30 50.05865 8.91987 10300 ft 296 kts 87°
2026-05-08 05:30 50.05925 8.95254 10849 ft 309 kts 88°
2026-05-08 05:30 50.05985 8.98692 11253 ft 326 kts 88°
2026-05-08 05:30 50.06049 9.02269 11872 ft 334 kts 88°
2026-05-08 05:31 50.06111 9.05912 12647 ft 338 kts 88°
2026-05-08 05:31 50.06174 9.09586 13442 ft 341 kts 88°
2026-05-08 05:31 50.06233 9.13292 14189 ft 345 kts 88°
2026-05-08 05:31 50.06290 9.17045 14888 ft 349 kts 88°
2026-05-08 05:32 50.06343 9.20836 15590 ft 352 kts 88°
2026-05-08 05:32 50.06395 9.24671 16286 ft 356 kts 88°
2026-05-08 05:32 50.06447 9.28537 16973 ft 360 kts 88°
2026-05-08 05:32 50.06499 9.32400 17648 ft 364 kts 88°
2026-05-08 05:33 50.06553 9.36406 18334 ft 368 kts 88°
2026-05-08 05:33 50.06606 9.40405 18912 ft 372 kts 89°
2026-05-08 05:33 50.06654 9.44390 19488 ft 375 kts 89°
2026-05-08 05:33 50.06701 9.48467 20078 ft 378 kts 89°
2026-05-08 05:34 50.06746 9.52576 20651 ft 382 kts 89°
2026-05-08 05:34 50.06788 9.56717 21220 ft 385 kts 89°
2026-05-08 05:34 50.06832 9.60897 21796 ft 388 kts 89°
2026-05-08 05:34 50.06871 9.65115 22361 ft 391 kts 89°
2026-05-08 05:35 50.06913 9.69358 22916 ft 394 kts 89°
2026-05-08 05:35 50.06962 9.73652 23454 ft 398 kts 89°
2026-05-08 05:35 50.07008 9.77900 23933 ft 401 kts 89°
2026-05-08 05:35 50.07047 9.82314 24394 ft 403 kts 89°
2026-05-08 05:36 50.07086 9.86693 24843 ft 406 kts 89°
2026-05-08 05:36 50.07120 9.91105 25283 ft 409 kts 89°
2026-05-08 05:36 50.07154 9.95550 25725 ft 412 kts 89°
2026-05-08 05:36 50.07187 10.00016 26155 ft 414 kts 89°
2026-05-08 05:37 50.07219 10.04511 26572 ft 417 kts 89°
2026-05-08 05:37 50.07251 10.09042 26973 ft 420 kts 89°
2026-05-08 05:37 50.07279 10.13592 27383 ft 422 kts 89°
2026-05-08 05:37 50.07306 10.18178 27777 ft 425 kts 90°
2026-05-08 05:38 50.07331 10.22797 28159 ft 428 kts 89°
2026-05-08 05:38 50.07357 10.27436 28542 ft 430 kts 90°
2026-05-08 05:38 50.07378 10.32111 28914 ft 433 kts 90°
2026-05-08 05:38 50.07402 10.36817 29271 ft 436 kts 90°
2026-05-08 05:39 50.07425 10.41539 29607 ft 438 kts 90°
2026-05-08 05:39 50.07442 10.46302 29934 ft 441 kts 90°
2026-05-08 05:39 50.07457 10.51090 30243 ft 444 kts 90°
2026-05-08 05:39 50.07473 10.55896 30512 ft 446 kts 90°
2026-05-08 05:40 50.07490 10.60743 30773 ft 449 kts 90°
2026-05-08 05:40 50.07505 10.65606 31030 ft 451 kts 90°
2026-05-08 05:40 50.07517 10.70510 31283 ft 453 kts 90°
2026-05-08 05:40 50.07522 10.75423 31531 ft 455 kts 91°
2026-05-08 05:41 50.07517 10.80368 31770 ft 458 kts 91°
2026-05-08 05:41 50.07512 10.85322 32078 ft 458 kts 91°
2026-05-08 05:41 50.07513 10.90282 32413 ft 458 kts 91°
2026-05-08 05:41 50.07514 10.95232 32726 ft 458 kts 91°
2026-05-08 05:42 50.07517 11.00195 33025 ft 458 kts 91°
2026-05-08 05:42 50.07513 11.05142 33318 ft 458 kts 91°
2026-05-08 05:42 50.07506 11.10092 33610 ft 458 kts 91°
2026-05-08 05:42 50.07499 11.15053 33905 ft 458 kts 91°
2026-05-08 05:43 50.07482 11.19940 34169 ft 458 kts 91°
2026-05-08 05:43 50.07465 11.24889 34380 ft 458 kts 91°
2026-05-08 05:43 50.07447 11.29851 34580 ft 458 kts 91°
2026-05-08 05:43 50.07426 11.34805 34780 ft 458 kts 92°
2026-05-08 05:44 50.07402 11.39769 34968 ft 458 kts 92°
2026-05-08 05:44 50.07378 11.44733 35117 ft 459 kts 92°
2026-05-08 05:44 50.07356 11.49702 35142 ft 459 kts 92°
2026-05-08 05:45 50.07300 11.59629 35117 ft 459 kts 92°
2026-05-08 05:45 50.07241 11.69562 35111 ft 459 kts 92°
2026-05-08 05:46 50.07168 11.79509 35107 ft 459 kts 92°
2026-05-08 05:46 50.07093 11.89449 35109 ft 460 kts 92°
2026-05-08 05:47 50.07010 11.99403 35102 ft 459 kts 92°
2026-05-08 05:47 50.06922 12.09345 35106 ft 459 kts 92°
2026-05-08 05:48 50.06799 12.19277 35105 ft 459 kts 92°
2026-05-08 05:48 50.06670 12.29214 35103 ft 460 kts 92°
2026-05-08 05:49 50.06541 12.39166 35100 ft 460 kts 91°
2026-05-08 05:49 50.06767 12.49107 35104 ft 460 kts 88°
2026-05-08 05:50 50.07064 12.59069 35106 ft 460 kts 88°
2026-05-08 05:50 50.07346 12.69024 35109 ft 460 kts 88°
2026-05-08 05:51 50.07624 12.78976 35110 ft 461 kts 88°
2026-05-08 05:51 50.07886 12.88942 35114 ft 461 kts 88°
2026-05-08 05:52 50.08140 12.98915 35105 ft 460 kts 88°
2026-05-08 05:52 50.08395 13.08876 35108 ft 461 kts 88°
2026-05-08 05:53 50.08635 13.18857 35106 ft 461 kts 88°
2026-05-08 05:53 50.08964 13.28828 35103 ft 461 kts 82°
2026-05-08 05:53 50.09703 13.33683 35108 ft 461 kts 70°
2026-05-08 05:54 50.11063 13.38192 35104 ft 460 kts 58°
2026-05-08 05:54 50.14448 13.46631 35107 ft 459 kts 56°
2026-05-08 05:55 50.17807 13.55023 35106 ft 459 kts 57°
2026-05-08 05:55 50.21147 13.63501 35108 ft 459 kts 57°
2026-05-08 05:56 50.24485 13.71985 35111 ft 458 kts 57°
2026-05-08 05:56 50.27814 13.80469 35116 ft 458 kts 57°
2026-05-08 05:57 50.31129 13.88968 35114 ft 458 kts 57°